Location: Newark
(51.2625°N, 13.3939°E)
Time: 00:29:53
(UTC+00:00)

Transit 2A Rocket - Pass Details

Date: 26 January 2021
Orbit: 594 x 909 km, 66.7° (Epoch: 03 March)

Event Time Altitude Azimuth Distance (km) Brightness Sun altitude
Rises 19:53:32 0° 316° (NW) 2,921 8.8 -38.2°
Reaches altitude 10° 19:56:02 10° 306° (NW) 1,979 7.8 -38.5°
Enters shadow 19:56:24 12° 304° (WNW) 1,845 7.6 -38.6°
